Location: Rio Negrinho
(26.2394°S, 49.4999°W)
Time: 00:22:26
(UTC+00:00)

Tiangong - Visible Passes

Search period start: 01 August 2021 00:00
Search period end: 11 August 2021 00:00
Orbit: 373 x 386 km, 41.5° (Epoch: 31 July)

Date Brightness Start Highest point End Pass type
(mag) Time Alt. Az. Time Alt. Az. Time Alt. Az.
01 Aug 2.3 21:42:47 10° W 21:45:42 34° SSW 21:47:53 15° SSE visible
02 Aug 3.7 22:20:01 10° SW 22:21:25 12° SSW 22:21:48 12° SSW visible
03 Aug 3.2 21:17:27 10° WSW 21:19:53 20° SSW 21:22:18 10° SSE visible
